TUI7WT GVAC-EDDV

Flight info

Callsign TUI7WT
Flight time N/A
Altitude 35000
Route PINPO2A PINPO UW11 GUNET/N0468F340 DCT ISOKA/N0463F350 N873 LIMAL T770 URQUI/N0466F340 Y422 GOMER N981 PITAB/N0458F360 N981 BIMBO Q206 SNT T16 IDREL T13 MANOX/M079F360 T13 NILAV/M079F370 DCT 47N011W DCT LASNO/N0455F370 DCT AMPOP DCT GIBSO L620 SAM M140 DVR UL9 KONAN DCT BATAK DCT OSDIK Z851 ROBEG ROBEG1L
Aircraft B38M/M-SDE1FGHILORVWXY/HB1

Departure

Time 2026-05-01 12:20
Airport Amílcar Cabral International Airport (GVAC)

Arrival

Time N/A
Airport Hannover Airport (EDDV)
Time Latitude Longitude Altitude Speed Heading
2026-05-01 11:51 16.73236 -22.94508 203 ft 0 kts 90°
2026-05-01 11:54 16.73299 -22.94509 212 ft 0 kts 90°
2026-05-01 11:54 16.73299 -22.94501 212 ft 0 kts 90°
2026-05-01 12:11 16.73298 -22.94528 209 ft 4 kts 86°
2026-05-01 12:11 16.73297 -22.94555 212 ft 4 kts 92°
2026-05-01 12:11 16.73303 -22.94580 207 ft 4 kts 126°
2026-05-01 12:12 16.73323 -22.94593 216 ft 4 kts 174°
2026-05-01 12:12 16.73343 -22.94594 214 ft 0 kts 180°
2026-05-01 12:14 16.73330 -22.94594 206 ft 5 kts 181°
2026-05-01 12:14 16.73257 -22.94595 205 ft 15 kts 179°
2026-05-01 12:14 16.73153 -22.94593 211 ft 14 kts 179°
2026-05-01 12:15 16.73069 -22.94630 207 ft 14 kts 238°
2026-05-01 12:15 16.73001 -22.94690 202 ft 13 kts 181°
2026-05-01 12:15 16.72877 -22.94690 192 ft 21 kts 179°
2026-05-01 12:15 16.72716 -22.94689 187 ft 25 kts 179°
2026-05-01 12:16 16.72537 -22.94687 185 ft 23 kts 179°
2026-05-01 12:16 16.72458 -22.94687 186 ft 9 kts 179°
2026-05-01 12:16 16.72409 -22.94706 185 ft 7 kts 258°
2026-05-01 12:16 16.72408 -22.94761 186 ft 8 kts 269°
2026-05-01 12:17 16.72406 -22.94815 187 ft 7 kts 268°
2026-05-01 12:17 16.72394 -22.94863 197 ft 7 kts 226°
2026-05-01 12:17 16.72346 -22.94883 188 ft 8 kts 184°
2026-05-01 12:17 16.72282 -22.94874 187 ft 10 kts 153°
2026-05-01 12:18 16.72232 -22.94824 187 ft 9 kts 131°
2026-05-01 12:18 16.72176 -22.94816 183 ft 9 kts 220°
2026-05-01 12:18 16.72168 -22.94876 187 ft 9 kts 311°
2026-05-01 12:18 16.72230 -22.94886 187 ft 10 kts
2026-05-01 12:19 16.72381 -22.94885 188 ft 49 kts
2026-05-01 12:19 16.72971 -22.94889 194 ft 118 kts 360°
2026-05-01 12:19 16.73974 -22.94902 215 ft 169 kts
2026-05-01 12:19 16.75202 -22.94945 754 ft 184 kts
2026-05-01 12:20 16.76487 -22.94943 1585 ft 179 kts
2026-05-01 12:20 16.77735 -22.94920 2212 ft 186 kts
2026-05-01 12:20 16.79092 -22.94902 2577 ft 204 kts
2026-05-01 12:20 16.80584 -22.94889 2817 ft 222 kts
2026-05-01 12:21 16.82181 -22.94880 3307 ft 237 kts
2026-05-01 12:21 16.83895 -22.94857 3737 ft 254 kts
2026-05-01 12:21 16.85609 -22.94342 4358 ft 261 kts 29°
2026-05-01 12:21 16.86950 -22.93056 4964 ft 272 kts 55°
2026-05-01 12:22 16.87619 -22.91194 5650 ft 275 kts 79°
2026-05-01 12:22 16.87997 -22.89199 6253 ft 284 kts 78°
2026-05-01 12:22 16.88421 -22.87181 6863 ft 288 kts 78°
2026-05-01 12:22 16.89129 -22.85219 7499 ft 293 kts 54°
2026-05-01 12:23 16.90625 -22.83780 8165 ft 297 kts 34°
2026-05-01 12:23 16.92426 -22.82677 8810 ft 301 kts 31°
2026-05-01 12:23 16.93609 -22.81978 9179 ft 306 kts 31°
2026-05-01 12:24 16.94796 -22.81273 9545 ft 309 kts 31°
2026-05-01 12:24 16.96668 -22.80160 10287 ft 310 kts 31°
2026-05-01 12:24 16.98588 -22.79014 10612 ft 327 kts 31°
2026-05-01 12:25 17.00629 -22.77793 10812 ft 346 kts 31°
2026-05-01 12:25 17.04976 -22.75194 11430 ft 371 kts 31°
2026-05-01 12:25 17.07213 -22.73858 12107 ft 371 kts 31°
2026-05-01 12:26 17.09475 -22.72507 12595 ft 377 kts 31°
2026-05-01 12:26 17.14036 -22.69780 13746 ft 384 kts 31°
2026-05-01 12:26 17.16366 -22.68387 14287 ft 386 kts 31°
2026-05-01 12:27 17.18678 -22.67004 14782 ft 389 kts 30°
2026-05-01 12:27 17.23382 -22.64189 15804 ft 393 kts 30°
2026-05-01 12:28 17.28160 -22.61328 16757 ft 398 kts 30°
2026-05-01 12:28 17.30539 -22.59901 17264 ft 398 kts 29°
2026-05-01 12:28 17.34658 -22.57433 17991 ft 404 kts 29°
2026-05-01 12:29 17.37098 -22.55970 18497 ft 404 kts 28°
2026-05-01 12:29 17.39528 -22.54513 18830 ft 407 kts 29°
2026-05-01 12:29 17.44457 -22.51554 19574 ft 411 kts 28°
2026-05-01 12:30 17.49453 -22.48554 20299 ft 414 kts 28°
2026-05-01 12:30 17.51927 -22.47068 20676 ft 416 kts 27°
2026-05-01 12:30 17.54456 -22.45548 21015 ft 418 kts 27°
2026-05-01 12:31 17.56982 -22.44029 21389 ft 419 kts 27°
2026-05-01 12:31 17.59505 -22.42512 21721 ft 422 kts 27°
2026-05-01 12:31 17.62052 -22.40980 22079 ft 424 kts 27°
2026-05-01 12:31 17.64618 -22.39437 22409 ft 426 kts 27°
2026-05-01 12:32 17.67199 -22.37883 22772 ft 428 kts 27°
2026-05-01 12:32 17.72363 -22.34773 23450 ft 432 kts 27°
2026-05-01 12:32 17.74977 -22.33198 23770 ft 434 kts 27°
2026-05-01 12:33 17.77610 -22.31611 24047 ft 436 kts 27°
2026-05-01 12:33 17.80249 -22.30020 24319 ft 439 kts 26°
2026-05-01 12:33 17.82909 -22.28415 24573 ft 442 kts 26°
2026-05-01 12:33 17.85586 -22.26800 24863 ft 444 kts 26°
2026-05-01 12:34 17.88241 -22.25194 25140 ft 446 kts 27°
2026-05-01 12:34 17.90928 -22.23541 25414 ft 448 kts 27°
2026-05-01 12:34 17.93628 -22.21879 25693 ft 450 kts 27°
2026-05-01 12:34 17.96348 -22.20207 25964 ft 453 kts 27°
2026-05-01 12:35 17.99074 -22.18530 26235 ft 455 kts 27°
2026-05-01 12:35 18.01812 -22.16844 26506 ft 457 kts 27°
2026-05-01 12:35 18.04564 -22.15150 26775 ft 459 kts 27°
2026-05-01 12:35 18.07296 -22.13468 27042 ft 461 kts 27°
2026-05-01 12:36 18.10078 -22.11754 27312 ft 464 kts 27°
2026-05-01 12:36 18.12869 -22.10034 27592 ft 466 kts 26°
2026-05-01 12:36 18.15676 -22.08303 27808 ft 469 kts 26°
2026-05-01 12:36 18.18505 -22.06558 28050 ft 471 kts 26°
2026-05-01 12:37 18.21343 -22.04807 28312 ft 473 kts 26°
2026-05-01 12:37 18.24193 -22.03048 28555 ft 475 kts 26°
2026-05-01 12:37 18.27014 -22.01306 28800 ft 477 kts 26°
2026-05-01 12:37 18.29879 -21.99536 29035 ft 479 kts 26°
2026-05-01 12:38 18.32770 -21.97750 29283 ft 481 kts 26°
2026-05-01 12:38 18.35675 -21.95954 29513 ft 483 kts 26°
2026-05-01 12:38 18.38587 -21.94153 29749 ft 485 kts 26°
2026-05-01 12:38 18.41507 -21.92347 29973 ft 487 kts 26°
2026-05-01 12:39 18.44399 -21.90556 30188 ft 489 kts 26°
2026-05-01 12:39 18.47331 -21.88741 30404 ft 491 kts 26°
2026-05-01 12:39 18.50287 -21.86910 30568 ft 494 kts 26°
2026-05-01 12:39 18.53251 -21.85073 30744 ft 495 kts 26°
2026-05-01 12:40 18.56231 -21.83226 30941 ft 497 kts 26°
2026-05-01 12:40 18.59221 -21.81371 31129 ft 499 kts 26°
2026-05-01 12:40 18.62226 -21.79507 31302 ft 501 kts 26°
2026-05-01 12:40 18.65231 -21.77642 31502 ft 502 kts 26°
2026-05-01 12:41 18.68207 -21.75794 31762 ft 502 kts 26°
2026-05-01 12:41 18.71229 -21.73917 32024 ft 502 kts 26°
2026-05-01 12:41 18.74239 -21.72046 32286 ft 502 kts 26°
2026-05-01 12:41 18.77252 -21.70173 32551 ft 502 kts 26°
2026-05-01 12:42 18.80264 -21.68299 32810 ft 502 kts 26°
2026-05-01 12:42 18.83231 -21.66453 33068 ft 502 kts 26°
2026-05-01 12:42 18.86250 -21.64574 33280 ft 503 kts 26°
2026-05-01 12:42 18.89265 -21.62696 33527 ft 503 kts 26°
2026-05-01 12:43 18.92274 -21.60821 33761 ft 503 kts 26°
2026-05-01 12:43 18.95303 -21.58933 34009 ft 503 kts 26°
2026-05-01 12:43 18.98286 -21.57073 34227 ft 503 kts 26°
2026-05-01 12:43 19.01306 -21.55189 34448 ft 503 kts 26°
2026-05-01 12:44 19.04322 -21.53307 34669 ft 502 kts 26°
2026-05-01 12:44 19.07345 -21.51420 34897 ft 502 kts 26°
2026-05-01 12:44 19.13360 -21.47661 35146 ft 502 kts 26°
2026-05-01 12:45 19.19335 -21.43925 35136 ft 500 kts 26°
2026-05-01 12:45 19.25348 -21.40162 35125 ft 501 kts 26°
2026-05-01 12:46 19.31320 -21.36421 35127 ft 501 kts 26°
2026-05-01 12:46 19.37335 -21.32651 35128 ft 501 kts 26°
2026-05-01 12:47 19.43309 -21.28902 35127 ft 501 kts 26°
2026-05-01 12:47 19.49314 -21.25131 35129 ft 501 kts 26°
2026-05-01 12:48 19.55299 -21.21369 35131 ft 502 kts 25°
2026-05-01 12:48 19.61311 -21.17587 35130 ft 502 kts 25°
2026-05-01 12:49 19.67316 -21.13806 35127 ft 502 kts 25°
2026-05-01 12:49 19.73322 -21.10021 35130 ft 502 kts 25°
2026-05-01 12:50 19.79303 -21.06248 35129 ft 502 kts 25°
2026-05-01 12:50 19.85282 -21.02474 35148 ft 502 kts 25°
2026-05-01 12:51 19.91303 -20.98669 35130 ft 503 kts 25°
2026-05-01 12:52 20.00334 -20.92956 35132 ft 503 kts 25°
2026-05-01 12:52 20.09335 -20.87255 35133 ft 503 kts 25°
2026-05-01 12:53 20.18371 -20.81524 35135 ft 503 kts 25°
2026-05-01 12:54 20.24358 -20.77723 35133 ft 503 kts 25°
2026-05-01 12:54 20.33369 -20.71995 35135 ft 503 kts 25°
2026-05-01 12:55 20.41374 -20.66887 35135 ft 503 kts 26°
2026-05-01 12:56 20.47400 -20.63038 35136 ft 503 kts 26°
2026-05-01 12:56 20.53416 -20.59192 35149 ft 503 kts 25°
2026-05-01 12:57 20.59401 -20.55361 35135 ft 504 kts 25°
2026-05-01 12:57 20.68428 -20.49579 35138 ft 504 kts 25°
2026-05-01 12:58 20.74401 -20.45747 35130 ft 504 kts 25°
2026-05-01 12:59 20.83426 -20.39952 35136 ft 504 kts 25°
2026-05-01 12:59 20.92460 -20.34142 35138 ft 504 kts 25°
2026-05-01 13:00 21.01441 -20.28358 35140 ft 504 kts 25°
2026-05-01 13:01 21.10459 -20.22542 35141 ft 504 kts 25°
2026-05-01 13:02 21.19445 -20.16738 35138 ft 504 kts 25°
2026-05-01 13:07 21.85440 -19.73857 35141 ft 505 kts 25°
2026-05-01 13:08 21.91412 -19.69954 35149 ft 505 kts 25°
2026-05-01 13:08 21.97423 -19.66022 35142 ft 505 kts 25°
2026-05-01 13:09 22.03405 -19.62104 35143 ft 505 kts 25°
2026-05-01 13:09 22.09421 -19.58159 35143 ft 505 kts 25°
2026-05-01 13:10 22.15394 -19.54239 35147 ft 505 kts 25°
2026-05-01 13:10 22.21412 -19.50284 35143 ft 505 kts 25°
2026-05-01 13:11 22.27439 -19.46321 35142 ft 507 kts 25°
2026-05-01 13:11 22.33424 -19.42380 35141 ft 506 kts 25°
2026-05-01 13:12 22.39448 -19.38411 35138 ft 506 kts 25°
2026-05-01 13:12 22.45432 -19.34463 35145 ft 506 kts 25°
2026-05-01 13:13 22.51466 -19.30479 35147 ft 506 kts 25°
2026-05-01 13:13 22.57484 -19.26500 35166 ft 507 kts 25°
2026-05-01 13:14 22.63503 -19.22517 35152 ft 510 kts 25°
2026-05-01 13:14 22.69563 -19.18503 35148 ft 510 kts 25°
2026-05-01 13:15 22.75617 -19.14488 35150 ft 510 kts 25°
2026-05-01 13:15 22.81638 -19.10491 35144 ft 509 kts 26°
2026-05-01 13:16 22.87676 -19.06479 35148 ft 508 kts 26°
2026-05-01 13:16 22.93719 -19.02459 35153 ft 510 kts 26°
2026-05-01 13:17 23.05789 -18.94417 35149 ft 510 kts 26°
2026-05-01 13:18 23.14859 -18.88363 35152 ft 510 kts 26°
2026-05-01 13:18 23.20907 -18.84320 35148 ft 510 kts 26°
2026-05-01 13:19 23.26972 -18.80262 35157 ft 512 kts 26°
2026-05-01 13:20 23.36054 -18.74176 35156 ft 512 kts 26°
2026-05-01 13:20 23.42135 -18.70096 35151 ft 512 kts 26°
2026-05-01 13:21 23.51214 -18.63996 35147 ft 512 kts 26°
2026-05-01 13:21 23.57258 -18.59930 35150 ft 512 kts 26°
2026-05-01 13:22 23.63330 -18.55840 35150 ft 512 kts 26°
2026-05-01 13:22 23.69370 -18.51768 35154 ft 512 kts 26°
2026-05-01 13:23 23.75432 -18.47676 35158 ft 512 kts 26°
2026-05-01 13:23 23.81509 -18.43568 35152 ft 512 kts 26°
2026-05-01 13:24 23.87566 -18.39471 35156 ft 511 kts 26°
2026-05-01 13:25 23.96598 -18.33352 35150 ft 511 kts 26°
2026-05-01 13:25 24.02622 -18.29265 35152 ft 511 kts 26°
2026-05-01 13:26 24.08687 -18.25146 35153 ft 511 kts 26°
2026-05-01 13:26 24.14747 -18.21026 35151 ft 511 kts 26°
2026-05-01 13:27 24.20766 -18.16929 35160 ft 511 kts 26°
2026-05-01 13:27 24.29850 -18.10736 35161 ft 512 kts 27°
2026-05-01 13:28 24.38899 -18.04557 35155 ft 510 kts 27°
2026-05-01 13:29 24.50949 -17.96313 35157 ft 511 kts 27°
2026-05-01 13:31 24.69053 -17.83891 35163 ft 511 kts 27°
2026-05-01 13:32 24.84124 -17.73519 35154 ft 511 kts 27°
2026-05-01 13:33 24.99137 -17.63156 35162 ft 510 kts 27°
2026-05-01 13:34 25.11131 -17.54840 35159 ft 510 kts 27°